Hereford, TX

1:40 AM CST on December 11, 2016 (GMT -0600)
Hereford Municipal

Weather History for KHRX - November, 2013

Change the Weather History Date:

Sunday, November 24, 2013

  Actual Average (KAMA) Record (KAMA)
Temperature  
Mean Temperature 26 °F -  
Max Temperature 28 °F 54 °F 78 °F (1981)
Min Temperature 24 °F 29 °F 11 °F (2003)
Degree Days  
Heating Degree Days 39    
Moisture  
Dew Point 23 °F    
Average Humidity 87    
Maximum Humidity 92    
Minimum Humidity 80    
Precipitation  
Precipitation 0.17 in - - ()
Sea Level Pressure  
Sea Level Pressure 30.36 in    
Wind  
Wind Speed 6 mph (SSE)    
Max Wind Speed 18 mph    
Max Gust Speed 25 mph    
Visibility 6 miles    
Events Snow    
Averages and records for this station are not official NWS values.
T = Trace of Precipitation, MM = Missing Value Source: NWS Daily Summary

Daily Weather History Graph

Daily Weather History Graph

Search for Another Location

Airport or City:

Trip Planner

Search our weather history database for the weather conditions in past years. The results will help you decide how hot, cold, wet, or windy it might be!

Date:

Astronomy

Nov. 24, 2013 Rise Set
Actual Time 7:32 AM CST 5:39 PM CST
Civil Twilight 7:05 AM CST 6:06 PM CST
Nautical Twilight 6:34 AM CST 6:37 PM CST
Astronomical Twilight 6:03 AM CST 7:08 PM CST
Moon 11:59 PM CST (11/24) 12:28 PM CST (11/24)
Length of Visible Light 11h 01m
Length of Day
10h 07m
Waning Gibbous, 60% of the Moon is Illuminated
Nov 24
Waning Gibbous
Nov 25
Last Quarter
Dec 2
New
Dec 9
First Quarter
Dec 17
Full

Hourly Weather History & Observations

Time (CST) Temp. Windchill Dew Point Humidity Pressure Visibility Wind Dir Wind Speed Gust Speed Precip Events Conditions
12:15 AM 26.4 °F - 23.9 °F 90% 30.57 in 0.8 mi Calm Calm - 0.02 in Snow Snow
12:35 AM 26.2 °F - 23.9 °F 91% 30.56 in 0.8 mi Calm Calm - 0.05 in Snow Snow
12:55 AM 26.2 °F - 23.9 °F 91% 30.56 in 0.5 mi Calm Calm - 0.08 in Snow Snow
1:15 AM 25.7 °F - 23.7 °F 92% 30.56 in 0.8 mi Calm Calm - 0.03 in Snow Snow
1:35 AM 25.7 °F - 23.7 °F 92% 30.55 in 1.8 mi Calm Calm - 0.05 in Snow Light Snow
1:55 AM 25.9 °F - 23.9 °F 92% 30.55 in 2.0 mi Calm Calm - 0.05 in Snow Light Snow
2:15 AM 25.9 °F - 23.7 °F 92% 30.55 in 4.0 mi Calm Calm - N/A Snow Light Snow
2:35 AM 25.7 °F - 23.5 °F 92% 30.54 in 2.5 mi Calm Calm - N/A Snow Light Snow
2:55 AM 25.7 °F 21.5 °F 23.4 °F 91% 30.54 in 2.0 mi East 3.5 mph - N/A Snow Light Snow
3:15 AM 25.7 °F 20.1 °F 23.4 °F 91% 30.53 in 1.8 mi East 4.6 mph - 0.01 in Snow Light Snow
3:35 AM 25.7 °F 19.0 °F 23.4 °F 91% 30.52 in 0.5 mi NE 5.8 mph - 0.02 in Snow Heavy Snow
3:55 AM 25.5 °F 18.7 °F 23.0 °F 90% 30.51 in 2.5 mi NE 5.8 mph - 0.02 in Snow Light Snow
4:15 AM 25.2 °F 17.3 °F 22.8 °F 91% 30.50 in 2.5 mi ENE 6.9 mph - N/A Snow Light Snow
4:35 AM 24.8 °F 16.9 °F 22.5 °F 91% 30.50 in 3.0 mi ENE 6.9 mph - N/A Snow Light Snow
4:55 AM 24.8 °F 20.5 °F 22.5 °F 91% 30.49 in 2.5 mi ENE 3.5 mph - N/A Snow Light Snow
5:15 AM 24.8 °F 17.9 °F 22.5 °F 91% 30.49 in 1.5 mi ENE 5.8 mph - 0.01 in Snow Light Snow
5:35 AM 24.8 °F 19.1 °F 22.5 °F 91% 30.49 in 2.5 mi ENE 4.6 mph - 0.01 in Snow Light Snow
5:55 AM 24.8 °F 17.9 °F 22.5 °F 91% 30.48 in 5.0 mi ENE 5.8 mph - 0.01 in Snow Light Snow
6:15 AM 24.8 °F 17.9 °F 22.6 °F 91% 30.47 in 4.0 mi ENE 5.8 mph - N/A Snow Light Snow
6:35 AM 24.8 °F 19.1 °F 22.6 °F 91% 30.47 in 0.8 mi East 4.6 mph - 0.01 in Snow Snow
6:55 AM 24.8 °F 20.5 °F 22.6 °F 91% 30.47 in 1.8 mi ENE 3.5 mph - 0.01 in Snow Light Snow
7:15 AM 24.8 °F 20.5 °F 22.1 °F 89% 30.47 in 2.5 mi East 3.5 mph - N/A Snow Light Snow
7:35 AM 24.8 °F 20.5 °F 22.3 °F 90% 30.47 in 1.0 mi East 3.5 mph - N/A Snow Light Snow
7:55 AM 24.6 °F 18.8 °F 22.3 °F 91% 30.45 in 1.0 mi East 4.6 mph - N/A Snow Light Snow
8:15 AM 24.8 °F 19.1 °F 22.3 °F 90% 30.45 in 1.2 mi East 4.6 mph - N/A Snow Light Snow
8:35 AM 25.0 °F - 22.5 °F 90% 30.47 in 3.0 mi Calm Calm - N/A Snow Light Snow
8:55 AM 25.3 °F 21.1 °F 22.1 °F 87% 30.46 in 7.0 mi East 3.5 mph - N/A Snow Light Snow
9:15 AM 25.3 °F 17.6 °F 22.1 °F 87% 30.45 in 7.0 mi ESE 6.9 mph - N/A Snow Light Snow
9:35 AM 25.3 °F 19.7 °F 22.1 °F 87% 30.45 in 2.0 mi ESE 4.6 mph - N/A Snow Light Snow
9:55 AM 25.5 °F 18.7 °F 22.1 °F 87% 30.44 in 1.5 mi ESE 5.8 mph - N/A Snow Light Snow
10:15 AM 25.9 °F 17.4 °F 22.8 °F 88% 30.43 in 0.8 mi ESE 8.1 mph - N/A Snow Light Snow
10:35 AM 26.6 °F 19.1 °F 23.0 °F 86% 30.44 in 1.8 mi SE 6.9 mph - N/A Snow Light Snow
10:55 AM 26.6 °F 19.1 °F 22.8 °F 86% 30.43 in 3.0 mi SE 6.9 mph - N/A Snow Light Snow
11:15 AM 27.0 °F 19.5 °F 23.0 °F 85% 30.42 in 2.0 mi SE 6.9 mph - N/A Snow Light Snow
11:35 AM 27.1 °F 20.7 °F 23.0 °F 84% 30.42 in 5.0 mi SSE 5.8 mph - N/A Snow Light Snow
11:55 AM 27.1 °F 19.7 °F 22.3 °F 82% 30.41 in 10.0 mi South 6.9 mph - N/A   Overcast
12:15 PM 27.3 °F 20.9 °F 22.5 °F 82% 30.40 in 10.0 mi South 5.8 mph - N/A   Overcast
12:35 PM 28.0 °F 20.8 °F 23.0 °F 81% 30.37 in 10.0 mi South 6.9 mph - N/A   Overcast
12:55 PM 28.4 °F 18.5 °F 23.0 °F 80% 30.35 in 10.0 mi South 11.5 mph - N/A   Overcast
1:15 PM 28.4 °F 18.0 °F 23.0 °F 80% 30.34 in 10.0 mi South 12.7 mph - N/A   Overcast
1:35 PM 28.6 °F 18.2 °F 23.4 °F 81% 30.32 in 7.0 mi South 12.7 mph - N/A   Overcast
1:55 PM 28.4 °F 18.0 °F 23.9 °F 83% 30.31 in 10.0 mi South 12.7 mph - N/A   Overcast
2:15 PM 28.4 °F 18.0 °F 23.9 °F 83% 30.29 in 10.0 mi South 12.7 mph - N/A   Overcast
2:35 PM 28.8 °F 17.5 °F 23.9 °F 82% 30.28 in 10.0 mi South 15.0 mph - N/A   Overcast
2:55 PM 28.4 °F 17.5 °F 23.7 °F 83% 30.28 in 10.0 mi South 13.8 mph - N/A   Overcast
3:15 PM 28.4 °F 17.5 °F 23.9 °F 83% 30.27 in 10.0 mi South 13.8 mph - N/A   Overcast
3:35 PM 28.0 °F 17.5 °F 23.9 °F 84% 30.26 in 10.0 mi South 12.7 mph - N/A   Overcast
3:55 PM 27.9 °F 17.8 °F 24.3 °F 86% 30.26 in 10.0 mi South 11.5 mph - N/A   Overcast
4:15 PM 28.0 °F 17.5 °F 24.6 °F 87% 30.24 in 10.0 mi South 12.7 mph - N/A   Overcast
4:35 PM 28.2 °F 17.7 °F 24.8 °F 87% 30.24 in 10.0 mi South 12.7 mph - N/A   Overcast
4:55 PM 28.0 °F 18.1 °F 24.6 °F 87% 30.23 in 10.0 mi South 11.5 mph - N/A   Overcast
5:15 PM 28.0 °F 18.6 °F 24.4 °F 86% 30.23 in 10.0 mi South 10.4 mph - N/A   Overcast
5:35 PM 28.0 °F 18.6 °F 24.8 °F 88% 30.22 in 10.0 mi South 10.4 mph - N/A   Overcast
5:55 PM 28.0 °F 18.6 °F 24.4 °F 86% 30.22 in 10.0 mi South 10.4 mph - N/A   Overcast
6:15 PM 28.0 °F 18.6 °F 24.4 °F 86% 30.21 in 10.0 mi South 10.4 mph - N/A   Overcast
6:35 PM 27.9 °F 17.8 °F 24.3 °F 86% 30.21 in 10.0 mi South 11.5 mph - N/A   Overcast
6:55 PM 27.7 °F 18.8 °F 24.4 °F 88% 30.20 in 10.0 mi South 9.2 mph - N/A   Overcast
7:15 PM 27.9 °F 19.1 °F 24.4 °F 87% 30.20 in 10.0 mi South 9.2 mph - N/A   Overcast
7:35 PM 27.9 °F 19.1 °F 24.3 °F 86% 30.19 in 10.0 mi South 9.2 mph - N/A   Overcast
7:55 PM 27.9 °F 19.8 °F 24.4 °F 87% 30.19 in 10.0 mi South 8.1 mph - N/A   Overcast
8:15 PM 27.7 °F 18.2 °F 24.4 °F 88% 30.18 in 10.0 mi South 10.4 mph - N/A   Overcast
8:35 PM 27.9 °F 17.3 °F 24.4 °F 87% 30.18 in 10.0 mi South 12.7 mph - N/A   Overcast
8:55 PM 28.0 °F 17.0 °F 24.4 °F 86% 30.18 in 10.0 mi South 13.8 mph - N/A   Overcast
9:15 PM 27.9 °F 18.4 °F 24.3 °F 86% 30.17 in 10.0 mi South 10.4 mph - N/A   Overcast
9:35 PM 28.0 °F 18.1 °F 24.3 °F 86% 30.17 in 10.0 mi SSW 11.5 mph 18.4 mph N/A   Overcast
9:55 PM 28.2 °F 17.2 °F 24.4 °F 86% 30.16 in 10.0 mi SSW 13.8 mph 19.6 mph N/A   Overcast
10:15 PM 28.2 °F 16.3 °F 24.8 °F 87% 30.15 in 10.0 mi SSW 16.1 mph - N/A   Overcast
10:35 PM 28.0 °F 16.1 °F 24.6 °F 87% 30.14 in 10.0 mi SW 16.1 mph 19.6 mph N/A   Overcast
10:55 PM 28.2 °F 16.3 °F 24.4 °F 86% 30.14 in 10.0 mi SSW 16.1 mph 24.2 mph N/A   Overcast
11:15 PM 28.0 °F 16.5 °F 24.1 °F 85% 30.13 in 10.0 mi SSW 15.0 mph 21.9 mph N/A   Overcast
11:35 PM 28.0 °F 15.3 °F 23.9 °F 84% 30.12 in 10.0 mi SW 18.4 mph 25.3 mph N/A   Overcast
11:55 PM 28.0 °F 15.3 °F 23.9 °F 84% 30.11 in 10.0 mi SSW 18.4 mph - N/A   Overcast